Regional Weather Roundup
Issued by NWS

Home | Current Version | Previous Version | Graphics & Text | Print | Product List | Glossary On
Versions: 1 2 3 4 5 6 7 8 9 10 11 12 13 14 15 16 17 18 19 20 21 22 23 24 25 26 27 28 29 30 31 32 33 34 35 36 37 38 39 40 41 42 43 44 45 46 47 48 49 50
000
ASUS43 KLMK 311502
RWRKY
KENTUCKY REGIONAL WEATHER ROUNDUP
NATIONAL WEATHER SERVICE LOUISVILLE KY
1100 AM EDT FRI JUL 31 2015

NOTE "FAIR" INDICATES FEW OR NO CLOUDS BELOW 12,000 FEET
WITH NO SIGNIFICANT WEATHER AND/OR OBSTRUCTIONS TO VISIBILITY.

KYZ001>023-026-027-061>063-070>075-311600-
WESTERN AND SOUTH CENTRAL KENTUCKY

CITY           SKY/WX    TMP DP  RH WIND       PRES   REMARKS
PADUCAH        SUNNY     83  67  58 N10       30.11S
HENDERSON      SUNNY     81  68  65 NW5       30.09
OWENSBORO      SUNNY     82  69  64 N7        30.10S
HOPKINSVILLE   SUNNY     80  69  68 VRB5      30.11R
BOWLING GREEN  SUNNY     83  66  56 E3        30.10S
GLASGOW        NOT AVBL
$$

KYZ024-025-028>034-038-045-046-053-311600-
NORTH CENTRAL KENTUCKY

CITY           SKY/WX    TMP DP  RH WIND       PRES   REMARKS
LOUISVILLE/SDF MOSUNNY   83  62  49 CALM      30.08S
LOUISVILLE/LOU SUNNY     82  64  54 CALM      30.09S
FORT KNOX      SUNNY     82  68  62 W6        30.08S
$$

KYZ035>037-039>044-047>052-055>060-089>105-311600-
NORTHEAST KENTUCKY

CITY           SKY/WX    TMP DP  RH WIND       PRES   REMARKS
LEXINGTON      SUNNY     80  64  58 W6        30.10S
COVINGTON      SUNNY     80  66  62 W6        30.07S
FRANKFORT      SUNNY     82  62  50 VRB5      30.08F
$$

KYZ054-064>069-076>088-106>120-311600-
SOUTHEAST KENTUCKY

CITY           SKY/WX    TMP DP  RH WIND       PRES   REMARKS
JACKSON        SUNNY     76  65  68 CALM      30.11S
LONDON         SUNNY     80  58  46 N5        30.11F
SOMERSET       NOT AVBL
MIDDLESBORO    SUNNY     75  63  66 CALM      30.11F
MONTICELLO     SUNNY     80  65  60 CALM      30.14S
$$



USA.gov is the U.S. government's official web portal to all federal, state and local government web resources and services.